[[{"header":{"parameterUnit":"m.s-1","parameterCategory":1,"la1":30.2991,"la2":30.254,"lo1":-89.0895,"lo2":-89.0444,"dy":0.0017,"dx":0.0017,"nx":28,"ny":28,"refTime":"2025-07-20T03:00:00:Z","depth":0,"parameterNumber":2,"parameterNumberName":"U-component_of_WINDS"},"data":[0,0,0,0,0,0,0,0,0,0,0,0,0,0,0,0,0,0,0,0,0,0,0,0,0,0,0,0,0,0,0,0,0,0,0,0,0,0,0,0,0,0,0,0,0,0,0,0,0,0,0,0,0,0,0,0,0,0,3.7256,3.7258,0,3.7441,3.7444,3.7446,3.7428,3.7425,3.7422,3.7419,3.761,3.7618,3.7626,0,0,0,0,0,0,0,0,0,0,0,0,0,3.6887,3.6894,3.7256,3.7258,3.726,3.7441,3.7444,3.7446,3.7428,3.7425,3.7421,3.7418,3.7608,3.7617,3.7626,0,0,0,0,0,0,0,0,0,0,0,0,0,3.7057,3.6896,3.7255,3.7273,3.7277,3.7441,3.7444,3.7447,3.7429,3.7425,3.742,3.7416,3.7605,3.7616,3.7628,3.7786,0,0,3.7663,3.7668,0,0,0,0,0,0,0,0,3.7048,3.7071,3.7268,3.7272,3.7276,3.7407,3.7384,3.7561,3.743,3.7371,3.7419,3.7414,3.7546,3.7563,3.7607,3.7795,3.7803,3.7664,3.7671,3.7676,3.768,0,0,0,0,0,0,0,3.7036,3.7063,3.7329,3.7271,3.7276,3.7272,3.7292,3.7417,3.7481,3.7376,3.7375,3.7397,3.7548,3.7596,3.7611,3.7806,3.7664,3.7674,3.7682,3.7686,3.8134,3.8139,0,0,0,0,0,0,3.702,3.7053,3.7323,3.7335,3.7149,3.7283,3.7304,3.737,3.7479,3.7492,3.7401,3.7396,3.7578,3.7598,3.7618,3.7811,3.7676,3.7687,3.7694,3.8129,3.8135,3.8141,0,0,0,0,0,0,3.7012,3.7044,3.7316,3.7194,3.7228,3.7293,3.7367,3.7375,3.7423,3.7498,3.7509,3.7438,3.7575,3.7601,3.7744,3.7817,3.7693,3.7703,3.8124,3.8131,3.8138,3.8198,0,0,0,0,0,0,3.7001,3.7041,3.7102,3.7195,3.7235,3.7439,3.7371,3.7382,3.7443,3.7439,3.7536,3.7548,3.7574,3.7727,3.7756,3.7831,3.7712,3.8117,3.8127,3.8136,3.819,3.8206,3.8221,0,0,0,0,0,3.6988,3.7111,3.7105,3.7138,3.7312,3.7443,3.7466,3.7493,3.7449,3.7511,3.7559,3.7545,3.7805,3.7742,3.7774,3.7854,3.8113,3.8124,3.8135,3.8183,3.8203,3.822,0,0,0,0,0,0,3.7025,3.7124,3.7118,3.7275,3.7351,3.744,3.7518,3.7513,3.7603,3.7595,3.7625,3.7647,3.7792,3.7837,3.7766,3.8013,3.7953,3.7971,3.7978,3.7998,3.8013,3.8,3.7722,0,0,0,0,0,3.7051,3.715,3.7231,3.7362,3.74,3.7453,3.7511,3.7525,3.7605,3.7637,3.7696,3.7774,3.7874,3.7938,3.8034,3.8196,3.8218,3.8267,3.8283,3.8295,3.831,3.84,3.8423,3.8177,3.8177,3.8177,0,0,3.7107,3.7173,3.7233,3.7371,3.7431,3.7533,3.748,3.7589,3.7665,3.7654,3.7793,3.7839,3.7928,3.8082,3.8152,3.8124,3.8383,3.8309,3.8318,3.8327,3.8414,3.8437,3.8458,3.8184,3.8183,3.8182,0,0,3.7259,3.7319,3.7435,3.7497,3.7589,3.7623,3.7651,3.7742,3.7772,3.7911,3.7905,3.7996,3.8166,3.823,3.8285,3.8463,3.8454,3.8494,3.8575,3.8662,3.8681,3.8699,3.8762,3.8785,3.8509,3.8509,3.8509,0,3.7317,3.7469,3.7495,3.7606,3.7667,3.7661,3.7779,3.7838,3.7957,3.7999,3.7966,3.818,3.824,3.8408,3.8452,3.8496,3.8529,3.8483,3.8676,3.8694,3.8711,3.8772,3.8796,3.8513,3.8513,3.8512,3.8512,0,3.7535,3.7641,3.7723,3.7838,3.7908,3.8022,3.8066,3.8134,3.8142,3.818,3.8323,3.8395,3.8505,3.8546,3.8555,3.8716,3.8696,3.8669,3.8609,3.8738,3.8796,3.882,3.8519,3.8518,3.8516,3.8515,0,0,3.7716,3.7844,3.7874,3.7926,3.8028,3.811,3.8224,3.8331,3.8389,3.8472,3.8568,3.8713,3.8689,3.8751,3.8768,3.8844,3.8981,3.8808,3.8811,3.8838,3.9164,3.9184,3.921,3.8976,3.898,3.8984,3.9157,0,3.7879,3.808,3.8107,3.8285,3.8384,3.838,3.8479,3.8553,3.8592,3.8681,3.8724,3.8826,3.8787,3.8824,3.89,3.8949,3.9047,3.8936,3.9066,3.9071,3.9044,3.9241,3.9262,3.9421,3.9179,3.9183,3.9186,0,3.8096,3.8184,3.8372,3.8461,3.8503,3.8592,3.8693,3.8778,3.8862,3.8885,3.8955,3.8962,3.908,3.9015,3.9179,3.9103,3.9158,3.919,3.9197,3.921,3.9136,3.9259,3.9473,3.9497,3.9222,3.9219,3.9217,0,3.8209,3.8375,3.8509,3.8554,3.8661,3.8723,3.8771,3.885,3.8913,3.9001,3.9043,3.9144,3.92,3.9278,3.9313,3.9262,3.9475,3.9412,3.9497,3.9497,3.9542,3.9539,3.9768,3.9577,3.9577,3.9577,3.9576,0,3.8389,3.8504,3.8562,3.8644,3.8773,3.8804,3.8931,3.8976,3.9047,3.9138,3.9142,3.9227,3.9268,3.936,3.9388,3.952,3.9545,3.9567,3.9573,3.9567,3.9564,3.9603,3.9593,3.9583,3.9582,3.958,3.9579,0,3.8537,3.858,3.8726,3.8815,3.8841,3.8932,3.9009,3.9089,3.9127,3.9243,3.9272,3.9332,3.9441,3.9483,3.9616,3.9635,3.9787,3.9784,3.9759,3.9761,3.9844,3.9835,4.0106,4.0143,3.9928,3.993,3.9931,0,3.8649,3.8737,3.8836,3.8898,3.8947,3.9046,3.9111,3.9144,3.9211,3.9313,3.9381,3.949,3.9579,3.9753,3.9809,3.9911,3.9911,3.9998,3.9926,3.9917,3.9913,3.9907,3.9916,4.0012,4.0014,4.0016,4.0017,0,3.8843,3.886,3.8952,3.9053,3.913,3.9211,3.929,3.934,3.9385,3.9461,3.9572,3.9641,3.9777,3.9885,3.999,4.0039,4.0037,4.004,4.0065,4.006,4.0041,4.0053,3.9796,4.0033,4.0032,4.003,4.003,4.0029,3.8977,3.9055,3.9137,3.9241,3.9303,3.9377,3.9457,3.9505,3.9598,3.9711,3.9726,3.9845,3.9927,4.0068,4.0122,4.0216,4.0193,4.023,4.0239,4.0248,4.0254,4.0026,4.0236,4.0235,4.0235,4.0235,4.0234,0,3.9171,3.9223,3.9318,3.9428,3.951,3.95,3.9586,3.9655,3.976,3.9837,3.9924,4.0052,4.0157,4.0222,4.0327,4.0391,4.0392,4.0417,4.0413,4.0425,4.0268,4.0236,4.0414,4.0414,4.0414,4.0414,4.0414,4.0414,3.9281,3.9414,3.9441,3.9606,3.9658,3.9775,3.9825,3.9893,3.9955,4.0098,4.0185,4.0226,4.0298,4.0409,4.0505,4.0521,4.056,4.0587,4.0602,4.0454,4.0436,4.0418,4.0388,4.0596,4.0596,4.0751,4.0752,4.0753]},{"header":{"parameterUnit":"m.s-1","parameterCategory":1,"la1":30.2991,"la2":30.254,"lo1":-89.0895,"lo2":-89.0444,"dy":0.0017,"dx":0.0017,"nx":28,"ny":28,"refTime":"2025-07-20T03:00:00:Z","depth":0,"parameterNumber":3,"parameterNumberName":"V-component_of_WINDS"},"data":[0,0,0,0,0,0,0,0,0,0,0,0,0,0,0,0,0,0,0,0,0,0,0,0,0,0,0,0,0,0,0,0,0,0,0,0,0,0,0,0,0,0,0,0,0,0,0,0,0,0,0,0,0,0,0,0,0,0,3.6296,3.6298,0,3.6486,3.6488,3.6491,3.6515,3.6513,3.6511,3.6509,3.6701,3.6707,3.6714,0,0,0,0,0,0,0,0,0,0,0,0,0,3.5949,3.5955,3.6296,3.6298,3.63,3.6486,3.6489,3.6491,3.6515,3.6513,3.651,3.6508,3.6698,3.6707,3.6715,0,0,0,0,0,0,0,0,0,0,0,0,0,3.6115,3.5957,3.6295,3.6335,3.634,3.6485,3.6489,3.6492,3.6515,3.6513,3.651,3.6507,3.6696,3.6706,3.6716,3.6834,0,0,3.6747,3.6751,0,0,0,0,0,0,0,0,3.6106,3.6128,3.6327,3.6332,3.6339,3.6474,3.6437,3.6606,3.6516,3.6449,3.6509,3.6506,3.6627,3.6643,3.6685,3.6843,3.6851,3.6748,3.6754,3.6759,3.6761,0,0,0,0,0,0,0,3.6094,3.612,3.6371,3.6329,3.6337,3.6342,3.6362,3.6469,3.6551,3.6454,3.6457,3.6479,3.663,3.6675,3.6689,3.6854,3.6748,3.6757,3.6763,3.6767,3.7118,3.7121,0,0,0,0,0,0,3.6076,3.611,3.6365,3.6377,3.6213,3.635,3.6373,3.6433,3.655,3.6565,3.6481,3.6479,3.6659,3.6677,3.6696,3.6842,3.6758,3.6768,3.6774,3.7115,3.7119,3.7122,0,0,0,0,0,0,3.6069,3.6099,3.6357,3.6244,3.6278,3.6359,3.6426,3.6438,3.6483,3.657,3.6585,3.6512,3.6657,3.6682,3.68,3.6849,3.6773,3.6782,3.7111,3.7116,3.712,3.7135,0,0,0,0,0,0,3.6059,3.6096,3.6142,3.6245,3.6284,3.6459,3.6429,3.6444,3.6501,3.6501,3.6603,3.6617,3.6657,3.6784,3.681,3.6862,3.679,3.7107,3.7113,3.7119,3.713,3.7139,3.7147,0,0,0,0,0,3.6046,3.6138,3.6145,3.6175,3.6344,3.6462,3.6483,3.6528,3.6505,3.6552,3.6608,3.6614,3.6839,3.6796,3.6825,3.6881,3.7104,3.7111,3.7118,3.7126,3.7137,3.7147,0,0,0,0,0,0,3.6038,3.6152,3.6161,3.6289,3.6366,3.6465,3.6526,3.6539,3.6623,3.6619,3.6669,3.6692,3.6808,3.6856,3.6806,3.7001,3.6969,3.6983,3.6965,3.6977,3.6985,3.6971,3.6798,0,0,0,0,0,3.6051,3.6139,3.6233,3.6337,3.6375,3.6444,3.6497,3.6525,3.6606,3.6638,3.6702,3.678,3.6868,3.6925,3.7011,3.7137,3.7159,3.7189,3.7198,3.7204,3.7215,3.7285,3.73,3.7146,3.7146,3.7145,0,0,3.6079,3.6153,3.6205,3.6338,3.64,3.6488,3.6471,3.6565,3.6631,3.6652,3.6768,3.6817,3.6907,3.7029,3.7086,3.7073,3.7263,3.7213,3.7218,3.7226,3.7294,3.7308,3.7321,3.715,3.715,3.7149,0,0,3.6176,3.624,3.6334,3.6397,3.6493,3.6538,3.656,3.6658,3.6692,3.681,3.6827,3.6905,3.7056,3.7119,3.7171,3.729,3.7299,3.7317,3.7361,3.7429,3.7441,3.7452,3.7495,3.7509,3.7327,3.7327,3.7327,0,3.6199,3.6334,3.638,3.6475,3.6532,3.6556,3.6651,3.6709,3.6827,3.6866,3.6849,3.7039,3.7101,3.7238,3.7267,3.7309,3.7335,3.7306,3.7436,3.7447,3.7458,3.7499,3.7515,3.7329,3.7329,3.7328,3.7328,0,3.6357,3.645,3.6514,3.6628,3.6693,3.6787,3.6847,3.6906,3.6928,3.6975,3.7093,3.7168,3.7269,3.7304,3.7326,3.7444,3.7433,3.7425,3.7395,3.7474,3.7513,3.7529,3.7331,3.733,3.733,3.733,0,0,3.6454,3.6593,3.6616,3.6668,3.6775,3.6847,3.6941,3.7042,3.7092,3.7172,3.7252,3.7378,3.7372,3.7431,3.746,3.7519,3.7609,3.7504,3.7507,3.7521,3.7744,3.7749,3.7766,3.7615,3.7618,3.7621,3.7736,0,3.6563,3.6733,3.6778,3.6922,3.7008,3.7032,3.7114,3.7187,3.7233,3.7311,3.7361,3.7451,3.7435,3.7471,3.7531,3.7585,3.7654,3.7577,3.7689,3.7692,3.7666,3.7787,3.7793,3.7899,3.7752,3.7754,3.7756,0,3.6713,3.6798,3.6951,3.7046,3.7084,3.7157,3.7252,3.7328,3.7411,3.744,3.7505,3.7529,3.7626,3.759,3.7725,3.7672,3.772,3.7753,3.7759,3.7771,3.7729,3.7803,3.7934,3.7949,3.7781,3.7779,3.7777,0,3.6769,3.6921,3.7032,3.7076,3.719,3.724,3.729,3.7371,3.7428,3.7511,3.7548,3.7641,3.7691,3.7762,3.7809,3.7778,3.794,3.7908,3.7966,3.7965,3.7999,3.7997,3.814,3.803,3.8029,3.8029,3.8029,0,3.6886,3.6979,3.7059,3.7127,3.7231,3.7281,3.7382,3.7432,3.7504,3.7581,3.7607,3.7679,3.7737,3.7816,3.7853,3.7959,3.7982,3.8007,3.8016,3.8005,3.8002,3.8038,3.8032,3.8033,3.8032,3.8031,3.8031,0,3.6966,3.7024,3.7146,3.7244,3.7271,3.7343,3.7427,3.7493,3.7539,3.7637,3.7663,3.7735,3.783,3.7884,3.8003,3.8028,3.8146,3.8151,3.8118,3.8122,3.8177,3.8171,3.8349,3.8374,3.8247,3.8248,3.8249,0,3.7038,3.711,3.7215,3.727,3.732,3.7408,3.7467,3.7517,3.7577,3.7678,3.7732,3.7829,3.7909,3.8059,3.8121,3.8212,3.822,3.8276,3.8234,3.8221,3.8221,3.8216,3.8223,3.8283,3.8284,3.8285,3.8286,0,3.7158,3.7183,3.7267,3.7362,3.7432,3.7508,3.7584,3.7627,3.769,3.7756,3.7854,3.7916,3.8039,3.8134,3.823,3.8279,3.8293,3.8298,3.8317,3.8307,3.8285,3.8298,3.8138,3.8294,3.8293,3.8293,3.8292,3.8292,3.7236,3.7301,3.7386,3.7479,3.7542,3.7612,3.768,3.7734,3.7817,3.7922,3.7946,3.8049,3.813,3.8261,3.8313,3.8393,3.8383,3.8409,3.8416,3.8422,3.8424,3.8272,3.841,3.841,3.841,3.841,3.841,0,3.7358,3.7413,3.7499,3.7605,3.7678,3.7685,3.7769,3.783,3.7921,3.7995,3.8074,3.8186,3.8279,3.8348,3.8442,3.8493,3.8502,3.8516,3.8513,3.8524,3.8427,3.8402,3.8508,3.8508,3.8508,3.8508,3.8508,3.8508,3.743,3.754,3.7575,3.7716,3.7771,3.7873,3.7921,3.7985,3.8045,3.817,3.8248,3.8292,3.8365,3.8465,3.8549,3.8567,3.8601,3.8614,3.8633,3.8541,3.8531,3.8521,3.8498,3.8621,3.8621,3.8723,3.8724,3.8725]}]]